Location: Unspecified
(0.0000°N, 0.0000°E)
Time: 14:10:07
(UTC+00:00)

Envisat - Pass Details

Date: 16 September 2019
Orbit: 764 x 766 km, 98.1° (Epoch: 18 September)

Event Time Altitude Azimuth Distance (km) Brightness Sun altitude
Rises 18:18:44 0° 160° (SSE) 3,230 6.0 -6.0°
Reaches altitude 10° 18:21:05 10° 155° (SSE) 2,301 5.2 -6.5°
Maximum altitude 18:26:02 55° 78° (ENE) 915 3.1 -7.8°
Drops below altitude 10° 18:30:58 10° 1° (N) 2,291 5.5 -9.0°
Sets 18:33:18 0° 357° (N) 3,214 6.3 -9.6°
